Weather observations for the past three days for
Emporia, Emporia-Greensville Regional Airport
Imperial (Metric)
Date Time (edt) Wind (mph) Vis. (mi.) Weather Sky Cond. Temperature (ºF) Relative Humidity Wind Chill (°F) Heat Index (°F) Pressure Precipitation (in)
Air Dwpt 6 hour altimeter (in) sea level (mb) 1 hr 3 hr 6 hr
Max. Min.
16 12:35 Calm 10.00 Fair CLR 89.1 76.1 66% 101 29.94 0.0
16 12:15 S 7 10.00 Fair CLR 88.5 77 69% 101 29.95 0.0
16 11:55 Calm 10.00 Fair CLR 87.3 76.1 70% 98 29.96 0.0
16 11:35 Calm 10.00 Fair CLR 86 75.4 71% 95 29.96 0.0
16 11:15 Calm 10.00 Fair CLR 85.5 75.4 72% 95 29.96 0.0
16 10:55 Calm 10.00 Fair CLR 84.4 75 74% 93 29.96 0.0
16 10:35 Calm 10.00 Fair CLR 83.8 74.8 74% 92 29.95 0.0
16 10:15 Calm 10.00 Fair CLR 82.8 74.3 76% 89 29.95 0.0
16 09:55 Calm 10.00 Fair CLR 81.1 74.3 80% 87 29.96 0.0
16 09:35 Calm 10.00 Fair CLR 80.2 74.3 82% 85 29.96 0.0
16 09:15 Calm 10.00 Fair CLR 79.7 73.9 83% 84 29.96 0.0
16 08:55 Calm 10.00 Fair CLR 78.8 73.4 84% 82 29.96 0.0
16 08:35 Calm 10.00 Fair CLR 78.1 73.2 85% 81 29.96 0.0
16 08:15 Calm 10.00 Fair CLR 77.9 72.9 85% 80 29.95 0.0
16 07:55 Calm 10.00 Fair CLR 77.2 72.7 77.2 73.2 86% 79 29.95 0.0
16 07:35 Calm 10.00 Fair CLR 75.6 72.1 89% 75 29.94 0.0
16 07:15 Calm 10.00 Fair CLR 74.3 71.8 92% 29.94 0.0
16 06:55 Calm 10.00 Fair CLR 74.3 71.6 91% 29.94 0.0
16 06:35 Calm 10.00 Fair CLR 74.3 71.6 91% 29.94 0.0
16 06:15 Calm 10.00 Fair CLR 73.9 71.6 92% 29.94 0.0
16 05:55 Calm 10.00 Fair CLR 73.9 71.6 92% 29.94 0.0
16 05:35 Calm 10.00 Fair CLR 73.8 71.2 92% 29.94 0.0
16 05:15 Calm 10.00 Fair CLR 73.9 71.6 92% 29.94 0.0
16 04:55 Calm 10.00 Fair CLR 73.9 71.4 92% 29.94 0.0
16 04:35 Calm 10.00 Fair CLR 73.9 70.9 90% 29.93 0.0
16 04:15 Calm 10.00 Fair CLR 74.1 70.9 90% 29.92 0.0
16 03:55 Calm 10.00 Fair CLR 75.2 70.7 86% 75 29.92 0.0
16 03:35 Calm 10.00 Fair CLR 74.8 70.7 87% 29.92 0.0
16 03:15 Calm 10.00 Fair CLR 75.4 70.7 85% 75 29.92 0.0
16 02:55 Calm 10.00 Fair CLR 76.1 70.9 84% 77 29.92 0.0
16 02:35 Calm 10.00 Fair CLR 76.3 70.9 83% 77 29.92 0.0
16 02:15 Calm 10.00 Fair CLR 77 70.9 81% 79 29.92 0.0
16 01:55 Calm 10.00 Fair CLR 77.2 70.9 87.8 77.2 81% 79 29.92 0.0
16 01:35 Calm 10.00 Fair CLR 77.9 70.7 79% 80 29.93 0.0
16 01:15 Calm 10.00 Fair CLR 78.6 70.7 77% 81 29.93 0.0
16 00:55 Calm 10.00 Fair CLR 79 70.7 76% 82 29.93 0.0
16 00:35 Calm 10.00 Fair CLR 79.2 70.7 75% 82 29.94 0.0
16 00:15 Calm 10.00 Fair CLR 79.5 70.7 75% 83 29.93 0.0
15 23:55 Calm 10.00 Fair CLR 80.6 70.9 72% 84 29.94 0.0
15 23:35 Calm 10.00 Fair CLR 81.1 71.8 73% 85 29.94 0.0
15 23:15 Calm 10.00 Fair CLR 81.7 72.5 74% 87 29.93 0.0
15 22:55 Calm 10.00 Fair CLR 82.4 73.9 76% 89 29.94 0.0
15 22:35 Calm 10.00 Fair CLR 82.9 73.8 74% 89 29.93 0.0
15 22:15 Calm 10.00 Fair CLR 82.8 74.8 77% 90 29.93 0.0
15 21:55 Calm 10.00 Fair CLR 79.5 76.3 90% 84 29.94 0.0
15 21:35 Calm 2.50 Fair with Haze CLR 83.7 76.3 79% 93 29.93 0.0
15 21:15 Calm 7.00 Fair CLR 84.4 76.5 77% 94 29.92 0.0
15 20:55 Calm 10.00 Fair CLR 84.9 76.6 76% 95 29.93 0.0
15 20:35 Calm 10.00 Fair CLR 86.2 76.3 72% 97 29.94 0.0
15 20:15 Calm 10.00 Fair CLR 87.1 76.6 71% 98 29.93 0.0
15 19:55 Calm 10.00 Fair CLR 88.3 76.5 95.4 88.3 68% 100 29.93 0.0
15 19:35 Calm 10.00 Fair CLR 89.6 76.6 66% 102 29.92 0.0
15 19:15 Calm 10.00 Fair CLR 90.5 76.6 64% 103 29.91 0.0
15 18:55 Calm 10.00 Fair CLR 91.6 75.9 60% 104 29.91 0.0
15 18:35 Calm 10.00 Fair CLR 91.9 74.8 57% 103 29.91 0.0
15 18:15 S 5 10.00 Fair CLR 92.5 74.5 56% 103 29.9 0.0
15 17:55 Calm 10.00 Fair CLR 93 74.3 55% 104 29.91 0.0
15 17:35 Calm 10.00 Fair CLR 94.1 73.4 51% 104 29.92 0.0
15 17:15 Calm 10.00 Fair CLR 94.3 72 48% 103 29.92 0.0
15 16:55 Calm 10.00 Fair CLR 94.8 70 45% 101 29.93 0.0
15 16:35 Calm 10.00 Fair CLR 95.4 73 49% 105 29.94 0.0
15 16:15 Calm 10.00 Partly Cloudy SCT065 95.2 73.2 49% 105 29.94 0.0
15 15:55 Calm 10.00 Fair CLR 94.5 71.8 48% 103 29.94 0.0
15 15:35 E 3 10.00 Fair CLR 94.3 71.6 48% 102 29.95 0.0
15 15:15 Calm 10.00 Fair CLR 94.8 72.3 48% 104 29.96 0.0
15 14:55 Calm 10.00 Fair CLR 94.5 70.7 46% 101 29.97 0.0
15 14:15 Calm 10.00 Fair CLR 93 69.1 46% 98 29.99 0.0
15 13:55 Calm 10.00 Fair CLR 93 70.5 93 77.4 48% 100 30 0.0
15 13:35 Calm 10.00 Fair CLR 92.5 70.5 49% 99 30 0.0
15 13:15 Calm 10.00 Fair CLR 91.8 70.5 50% 98 30.01 0.0
15 12:55 Calm 10.00 Fair CLR 91 70.9 52% 97 30.01 0.0
15 12:35 Calm 10.00 Fair CLR 91.6 70.7 51% 98 30.01 0.0
15 12:15 Calm 10.00 Fair CLR 90.9 69.4 50% 96 30.02 0.0
15 11:55 Calm 10.00 Fair CLR 90.7 68.2 48% 95 30.02 0.0
15 11:35 Calm 10.00 Fair CLR 89.8 68.4 49% 94 30.02 0.0
15 11:15 Calm 10.00 Fair CLR 90 68.5 49% 94 30.02 0.0
15 10:55 Calm 10.00 Fair CLR 88.7 68.7 52% 93 30.02 0.0
15 10:35 Calm 10.00 Fair CLR 88.2 70.2 55% 93 30.03 0.0
15 10:15 Calm 10.00 Fair CLR 87.4 69.8 56% 92 30.03 0.0
15 09:55 Calm 10.00 Fair CLR 86.9 70.2 58% 92 30.03 0.0
15 09:35 Calm 10.00 Fair CLR 86.2 70.5 60% 91 30.03 0.0
15 09:15 Calm 10.00 Fair CLR 84.7 72 66% 91 30.03 0.0
15 08:55 Calm 10.00 Fair CLR 82.8 73.4 73% 89 30.03 0.0
15 08:35 Calm 10.00 Fair CLR 81 74.1 80% 86 30.03 0.0
15 08:15 Calm 10.00 Fair CLR 78.8 73.9 85% 82 30.02 0.0
15 07:55 Calm 10.00 Fair CLR 77.2 73.9 77.2 70.9 90% 79 30.02 0.0
15 07:35 Calm 7.00 Fair CLR 75.4 73.4 94% 74 30.02 0.0
15 07:15 Calm 7.00 Fair CLR 73.9 72.9 96% 30.01 0.0
15 06:55 Calm 7.00 Fair CLR 72.9 72.5 99% 30.01 0.0
15 06:35 Calm 5.00 Fog/Mist CLR 72 72 100% 30 0.0
15 06:15 Calm 3.00 Fog/Mist CLR 71.6 70.9 98% 30 0.0
15 05:55 Calm 7.00 Fair CLR 72.7 71.6 96% 30 0.0
15 05:35 Calm 7.00 Fair CLR 72.5 71.6 97% 29.99 0.0
15 05:15 Calm 5.00 Fog/Mist CLR 72.5 71.6 97% 29.99 0.0
15 04:55 Calm 7.00 Fair CLR 72.1 70.7 95% 29.99 0.0
15 04:35 Calm 7.00 Fair CLR 71.8 70.7 96% 29.99 0.0
15 04:15 Calm 10.00 Fair CLR 73.4 71.4 94% 29.98 0.0
15 03:55 Calm 10.00 Fair CLR 72.5 70.9 95% 29.98 0.0
15 03:35 Calm 10.00 Fair CLR 73.4 71.4 94% 29.98 0.0
15 03:15 Calm 10.00 Fair CLR 73.6 71.1 92% 29.97 0.0
15 02:55 Calm 10.00 Fair CLR 73.9 71.1 91% 29.98 0.0
15 02:35 Calm 10.00 Fair CLR 74.3 70.9 89% 29.99 0.0
15 02:15 Calm 10.00 Fair CLR 74.7 70.7 88% 30 0.0
15 01:55 Calm 10.00 Fair CLR 75.2 70.7 85.3 75.2 86% 75 30 0.0
15 01:35 Calm 10.00 Fair CLR 75.4 70.7 85% 75 30 0.0
15 01:15 Calm 10.00 Fair CLR 76.1 70.7 83% 77 30.01 0.0
15 00:55 Calm 10.00 Fair CLR 76.1 70.7 83% 77 30.01 0.0
15 00:35 Calm 10.00 Fair CLR 76.1 70.3 82% 77 30.02 0.0
15 00:15 Calm 10.00 Fair CLR 76.1 70.3 82% 77 30.02 0.0
14 23:55 Calm 10.00 Fair CLR 76.1 70.5 83% 77 30.02 0.0
14 23:35 Calm 10.00 Fair CLR 76.3 70.7 83% 77 30.02 0.0
14 23:15 Calm 10.00 Fair CLR 77 70.9 81% 79 30.02 0.0
14 22:55 Calm 10.00 Fair CLR 77.4 71.1 81% 79 30.03 0.0
14 22:35 Calm 10.00 Fair CLR 77.9 71.2 80% 80 30.04 0.0
14 22:15 Calm 10.00 Fair CLR 78.3 71.6 80% 81 30.03 0.0
14 21:55 Calm 10.00 Fair CLR 79 72 79% 82 30.03 0.0
14 21:35 Calm 7.00 Fair CLR 79.5 72.7 80% 83 30.03 0.0
14 21:15 Calm 10.00 Fair CLR 80.2 72.9 78% 84 30.03 0.0
14 20:55 Calm 10.00 Fair CLR 81.1 72.9 76% 86 30.03 0.0
14 20:35 SE 9 10.00 Fair CLR 82.4 73.4 74% 88 30.03 0.0
14 20:15 Calm 10.00 Fair CLR 84.2 75.7 76% 93 30.03 0.0
14 19:55 Calm 10.00 Fair CLR 85.6 76.6 94.3 85.6 75% 96 30.02 0.0
14 19:35 Calm 10.00 Fair CLR 86.7 76.5 72% 98 30.02 0.0
14 19:15 E 6 10.00 Fair CLR 88 76.1 68% 99 30.02 0.0
14 18:55 Calm 10.00 Fair CLR 89.6 75.9 64% 101 30.01 0.0
14 18:35 Calm 10.00 Fair CLR 90.7 76.8 64% 104 30.01 0.0
14 17:55 Calm 10.00 Fair CLR 93.2 75.4 56% 105 30 0.0
14 17:35 SE 5 10.00 Fair CLR 93 76.3 58% 106 29.99 0.0
14 17:15 Calm 10.00 Partly Cloudy SCT070 93.2 74.3 54% 104 30 0.0
14 16:55 SW 5 10.00 Fair CLR 93.9 72.3 50% 102 30 0.0
14 16:35 S 5 10.00 Fair CLR 93.9 72.9 51% 103 30.01 0.0
14 16:15 Calm 10.00 Fair CLR 93.4 72 50% 101 30.02 0.0
14 15:55 Calm 10.00 Fair CLR 93.2 73.4 53% 103 30.03 0.0
14 15:35 Calm 10.00 Fair CLR 93.7 73.9 53% 104 30.03 0.0
14 15:15 Calm 10.00 Partly Cloudy SCT085 SCT120 93.2 74.8 55% 104 30.04 0.0
14 14:55 Calm 10.00 Mostly Cloudy SCT080 SCT095 BKN120 93.4 75 55% 105 30.04 0.0
14 14:35 Calm 10.00 Mostly Cloudy SCT045 SCT080 BKN095 92.5 73.8 54% 102 30.05 0.0
14 14:15 Calm 10.00 Partly Cloudy SCT043 SCT090 SCT120 92.3 75.2 58% 104 30.06 0.0
14 13:55 Calm 10.00 Fair CLR 91.9 74.5 92.5 76.3 57% 102 30.07 0.0
14 13:35 Calm 10.00 Partly Cloudy SCT041 92.1 74.1 56% 102 30.07 0.0
14 13:15 Calm 10.00 Partly Cloudy SCT041 SCT120 91.8 75.2 58% 103 30.08 0.0
14 12:55 Calm 10.00 Partly Cloudy SCT038 SCT120 91 74.8 59% 102 30.09 0.0
14 12:35 Calm 10.00 Fair CLR 91.2 75.6 60% 103 30.09 0.0
14 12:15 Calm 10.00 Fair CLR 90 74.7 61% 100 30.1 0.0
14 11:55 Calm 10.00 Fair CLR 90 75.7 63% 101 30.1 0.0
14 11:35 Calm 10.00 Partly Cloudy SCT120 90.1 75.9 63% 102 30.1 0.0
14 11:15 Calm 10.00 Fair CLR 89.6 75 62% 100 30.1 0.0
14 10:55 Calm 10.00 Fair CLR 87.4 75 67% 97 30.1 0.0
14 10:35 Calm 10.00 Fair CLR 87.3 75.6 68% 97 30.1 0.0
14 10:15 Calm 10.00 Fair CLR 86 74.3 68% 94 30.1 0.0
14 09:55 Calm 10.00 Fair CLR 85.5 74.5 70% 94 30.1 0.0
14 09:35 Calm 10.00 Fair CLR 84.2 74.1 72% 92 30.11 0.0
14 09:15 Calm 10.00 Fair CLR 83.1 75 77% 91 30.11 0.0
14 08:55 Calm 10.00 Fair CLR 81.3 75.4 82% 88 30.1 0.0
14 08:35 Calm 10.00 Fair CLR 79.7 74.7 85% 84 30.11 0.0
14 08:15 Calm 10.00 Fair CLR 77.4 73.9 89% 79 30.1 0.0
14 07:55 Calm 10.00 Fair CLR 76.3 73.9 76.3 69.6 93% 76 30.1 0.0
14 07:35 Calm 10.00 Fair CLR 74.3 73.6 98% 30.1 0.0
14 07:15 Calm 10.00 Fair CLR 72.9 72.9 100% 30.09 0.0
14 06:55 Calm 10.00 Fair CLR 71.6 71.6 100% 30.1 0.0
14 06:35 Calm 7.00 Fair CLR 70 70 100% 30.09 0.0
14 06:15 Calm 4.00 Fog/Mist CLR 70.3 70.3 100% 30.09 0.0
14 05:55 Calm 7.00 Fair CLR 70.2 70.2 100% 30.09 0.0
14 05:35 Calm 1.00 Fog/Mist VV007 70.9 70.9 100% 30.08 0.0
14 05:15 Calm 3.00 Fog/Mist CLR 70.5 70.5 100% 30.09 0.0
14 04:55 Calm 10.00 Fair CLR 70.7 70.7 100% 30.1 0.0
14 04:35 Calm 10.00 Fair CLR 70.9 70.9 100% 30.1 0.0
14 04:15 Calm 0.50 Fog VV005 70.5 70.5 100% 30.1 0.0
14 03:55 Calm 1.00 Fog/Mist VV007 71.1 71.1 100% 30.1 0.0
14 03:35 Calm 0.50 Fog VV005 71.1 71.1 100% 30.1 0.0
14 03:15 Calm 1.50 Fog/Mist VV007 70.7 70.7 100% 30.1 0.0
14 02:55 Calm 0.50 Fog VV005 71.2 71.2 100% 30.1 0.0
14 02:35 Calm 7.00 Fair CLR 71.6 71.6 100% 30.11 0.0
14 02:15 Calm 10.00 Fair CLR 72.3 72.3 100% 30.11 0.0
14 01:55 Calm 0.50 Fog VV005 71.2 71.2 84.2 71.1 100% 30.12 0.0
14 01:35 Calm 0.50 Fog VV005 72.1 72.1 100% 30.12 0.0
14 01:15 Calm 4.00 Fog/Mist CLR 72.3 72.3 100% 30.12 0.0
14 00:55 Calm 3.00 Fog/Mist CLR 72.5 72.5 100% 30.12 0.0
14 00:35 Calm 5.00 Fog/Mist CLR 72.9 72.9 100% 30.13 0.0
14 00:15 Calm 2.00 Fog/Mist CLR 73.4 73.2 99% 30.13 0.0
13 23:55 Calm 4.00 Fog/Mist CLR 73.6 73.4 99% 30.13 0.0
13 23:35 Calm 10.00 Fair CLR 73.4 73 99% 30.13 0.0
13 23:15 Calm 10.00 Fair CLR 73.8 73.6 99% 30.13 0.0
13 22:55 Calm 7.00 Fair CLR 74.3 73.9 99% 30.13 0.0
13 22:35 Calm 7.00 Fair CLR 75 74.3 98% 73 30.13 0.0
13 22:15 Calm 5.00 Fog/Mist CLR 75.2 74.3 97% 73 30.13 0.0
13 21:55 Calm 7.00 Fair CLR 76.5 74.7 94% 77 30.13 0.0
13 21:35 Calm 10.00 Fair CLR 75.7 74.5 96% 75 30.13 0.0
13 21:15 Calm 7.00 Fair CLR 77 75.2 94% 78 30.13 0.0
13 20:55 Calm 10.00 Fair CLR 77.4 74.8 92% 79 30.12 0.0
13 20:35 Calm 10.00 Fair CLR 80.4 75 84% 86 30.12 0.0
13 20:15 Calm 10.00 Fair CLR 82.9 74.3 75% 90 30.12 0.0
13 19:55 Calm 10.00 Fair CLR 84.6 74.5 88.2 83.5 72% 92 30.12 0.0
13 19:35 Calm 10.00 Fair CLR 85.1 73.4 68% 92 30.11 0.0
13 19:15 Calm 10.00 Fair CLR 86 73.2 66% 93 30.11 0.0
13 18:55 Calm 10.00 Fair CLR 86 72.7 65% 93 30.1 0.0
13 18:35 Calm 10.00 Partly Cloudy SCT035 86.9 72.5 62% 94 30.1 0.0
13 18:15 Calm 10.00 Mostly Cloudy SCT035 BKN044 86.9 73.2 64% 94 30.1 0.0
13 17:55 Calm 10.00 Mostly Cloudy BKN037 BKN042 87.1 73.9 65% 95 30.1 0.0
13 17:35 Calm 10.00 Partly Cloudy SCT035 87.1 73.4 64% 95 30.1 0.0
13 17:15 Calm 10.00 Mostly Cloudy BKN035 BKN043 87.4 73.6 64% 96 30.11 0.0
13 16:55 Calm 10.00 Mostly Cloudy BKN037 BKN046 86.2 73.2 65% 94 30.12 0.0
13 16:35 Calm 10.00 Partly Cloudy SCT035 86.9 72.1 62% 94 30.12 0.0
13 16:15 Calm 10.00 Partly Cloudy SCT035 86.2 72.1 63% 93 30.12 0.0
13 15:55 Calm 10.00 Partly Cloudy SCT028 SCT033 86.5 73.8 66% 95 30.12 0.0
13 15:35 Calm 10.00 Partly Cloudy SCT030 85.3 74.3 70% 93 30.12 0.0
13 15:15 Calm 10.00 Mostly Cloudy SCT028 BKN033 84.4 73.9 71% 92 30.13 0.0
13 14:55 W 6 10.00 Mostly Cloudy BKN028 BKN033 84 74.8 74% 92 30.14 0.0
13 14:35 W 10 10.00 Mostly Cloudy SCT026 SCT031 BKN060 85.1 75.2 72% 94 30.14 0.0
13 14:15 W 7 10.00 Mostly Cloudy SCT039 SCT047 BKN060 83.7 74.3 74% 91 30.15 0.0
13 13:55 Calm 10.00 Overcast SCT023 BKN042 OVC060 83.5 75.2 84.6 75.6 76% 91 30.15 0.0
13 13:35 SW 5 10.00 Overcast SCT021 OVC042 84.2 74.8 74% 92 30.15 0.0
13 13:15 W 7 10.00 Overcast BKN021 BKN027 OVC044 83.3 74.8 76% 91 30.15 0.0
13 12:55 Calm 10.00 Mostly Cloudy SCT019 BKN025 BKN038 82.9 75.4 78% 91 30.15 0.0
Date Time (edt) Wind (mph) Vis. (mi.) Weather Sky Cond. Air Dwpt Max. Min. Relative Humidity Wind Chill (°F) Heat Index (°F) altimeter (in) sea level (mb) 1 hr 3 hr 6 hr
6 hour
Temperature (ºF) Pressure Precipitation (in)